Home   Weather   Peterborough   Past weeks

Flag for Canada Past Weather in Peterborough, Ontario, Canada — Yesterday and Last 2 Weeks

Now
57 °F

Mostly cloudy.


Feels Like: 57 °F
Forecast: 52 / 72 °F
Wind: No wind

Location: Peterborough Airport

Current Time: May 24, 2017 at 12:05:50 am

Latest Report: May 23, 2017 at 11:00 pm


Visibility: 9 mi

Pressure: 29.79 "Hg

Humidity: 94%

Dew Point: 55 °F

Location of PeterboroughLocation

Past Weather in Peterborough — Graph

°F

Peterborough Temperature Yesterday

Maximum temperature yesterday: 70 °F (at 1:00 pm)
Minimum temperature yesterday: 39 °F (at 2:39 am)
Average temperature yesterday: 51 °F

High & Low Weather Summary for the Past Weeks

 TemperatureHumidityPressure
High84 °F (May 17, 3:00 pm)100% (May 10, 2:00 am)30.39 "Hg (May 10, 2:00 am)
Low28 °F (May 10, 6:00 am)30% (May 20, 5:00 pm)29.64 "Hg (May 18, 6:00 pm)
Average54 °F74%29.95 "Hg
* Reported May 8 11:00 pm — May 23 11:00 pm, Peterborough. Weather by CustomWeather, © 2017

Note: Actual official high and low records may vary slightly from our data, if they occured in-between our weather recording intervals... More about our weather records

Advertising

Peterborough Weather History for the Previous 24 Hours

Scroll right to see more
 ConditionsComfort  
Time TempWeatherWind HumidityBarometerVisibility
11:00 pm
Tue, May 23
57 °FMostly cloudy.No wind94%29.79 "Hg9 mi
10:00 pm55 °FOvercast.No wind100%29.80 "Hg9 mi
9:16 pm57 °FClear.No wind94%29.80 "Hg7 mi
9:00 pm59 °FFog.No wind88%29.79 "Hg4 mi
8:00 pm63 °FOvercast.No wind77%29.80 "Hg9 mi
7:00 pm64 °FMostly cloudy.3 mph73%29.80 "Hg9 mi
6:00 pm68 °FOvercast.8 mph60%29.80 "Hg9 mi
5:00 pm68 °FOvercast.6 mph60%29.80 "Hg9 mi
4:00 pm68 °FOvercast.9 mph60%29.81 "Hg9 mi
3:00 pm66 °FCloudy.8 mph64%29.83 "Hg9 mi
2:00 pm68 °FPartly sunny.13 mph60%29.83 "Hg9 mi
1:00 pm70 °FBroken clouds.10 mph57%29.85 "Hg9 mi
12:00 pm66 °FOvercast.3 mph64%29.87 "Hg9 mi
11:00 am63 °FBroken clouds.14 mph68%29.88 "Hg9 mi
10:00 am61 °FSunny.10 mph72%29.89 "Hg9 mi
9:00 am57 °FSunny.2 mph82%29.89 "Hg9 mi
8:00 am50 °FBroken clouds.2 mph94%29.90 "Hg7 mi
7:00 am45 °FOvercast.No wind100%29.91 "Hg9 mi
6:00 am41 °FMostly cloudy.2 mph100%29.91 "Hg8 mi
5:52 am39 °FFog.3 mph100%29.91 "Hg6 mi
5:35 am39 °FFog.No wind100%29.91 "Hg4 mi
5:10 am39 °FFog.No wind100%29.91 "Hg1 mi
4:47 am39 °FFog.5 mph100%29.92 "Hg1 mi
4:43 am39 °FFog.2 mph100%29.92 "Hg5 mi
4:33 am39 °FFog.No wind100%29.92 "Hg6 mi
4:00 am41 °FFog.2 mph100%29.93 "Hg5 mi
3:58 am41 °FFog.No wind100%29.93 "Hg5 mi
3:40 am39 °FFog.2 mph100%29.93 "Hg4 mi
3:23 am39 °FFog.No wind100%29.93 "Hg2 mi
3:01 am39 °FFog.No wind100%29.93 "Hg3 mi
2:39 am39 °FClear.2 mph100%29.93 "Hg7 mi
2:00 am41 °FFog.2 mph100%29.94 "Hg1 mi
1:38 am43 °FFog.No wind100%29.94 "Hg5 mi
1:00 am43 °FClear.No wind100%29.95 "Hg7 mi
12:52 am43 °FClear.No wind100%29.96 "Hg7 mi
12:41 am45 °FFog.No wind100%29.96 "Hg1 mi
12:40 am45 °FFog.No wind100%29.96 "Hg2 mi
12:00 am45 °FClear.2 mph100%29.97 "Hg9 mi
Weather by CustomWeather, © 2017

See weather overviewHow to use our weather pages